Miscellaneous Local Product
Issued by NWS Hastings, NE

Home | Current Version | Previous Version | Text Only | Print | Product List | Glossary On
Versions: 1 2 3 4 5 6 7 8 9 10 11 12 13 14 15 16 17 18 19 20 21 22 23 24 25 26 27 28 29 30 31 32 33 34 35 36 37 38 39 40 41 42 43 44 45 46 47 48 49 50
000
AXUS43 KGID 260502
MISGRI

GID CWA HOURLY WEATHER ROUNDUP
NATIONAL WEATHER SERVICE HASTINGS NE
1200 AM CDT SAT JUL 26 2014

NOTE: "FAIR" INDICATES FEW OR NO CLOUDS BELOW 12,000 FEET WITH NO
SIGNIFICANT WEATHER AND/OR OBSTRUCTIONS TO VISIBILITY.

...SOUTH CENTRAL NEBRASKA...

CITY           SKY/WX    TMP DP  RH WIND       PRES   REMARKS
GRAND ISLAND   PTCLDY    76  72  87 CALM      29.85R
HASTINGS       PTCLDY    74  68  81 CALM      29.84S
KEARNEY        PTCLDY    72  66  83 N3        29.86S
ORD            CLOUDY    75  71  87 CALM      29.85F
YORK           FOG       73  73 100 CALM      29.83S VSB 1/2
AURORA         PTCLDY    74  74 100 CALM      29.84R FOG
LEXINGTON      CLOUDY    74  71  89 N9        29.90R
HOLDREGE       MOCLDY    72  68  87 N6        29.86S
HEBRON         PTCLDY    76  71  85 CALM      29.81S

...NEBRASKA PANHANDLE...

CITY           SKY/WX    TMP DP  RH WIND       PRES   REMARKS
CHADRON        CLEAR     80  54  40 S20       29.82R
ALLIANCE       MOCLDY    69  60  73 S13       29.92F
SCOTTSBLUFF    MOCLDY    69  61  75 E9        29.93F
SIDNEY         MOCLDY    72  56  57 S9        30.01F

...WESTERN AND NORTH CENTRAL NEBRASKA...

CITY           SKY/WX    TMP DP  RH WIND       PRES   REMARKS
VALENTINE      PTCLDY    74  61  63 NE9       29.86F
AINSWORTH      MOCLDY    73  69  87 E8        29.88S
ONEILL         MOCLDY    75  67  77 NE9       29.87F
BROKEN BOW     CLOUDY    78  70  76 S7        29.88F
IMPERIAL       CLOUDY    74  66  76 N6        29.95S
NORTH PLATTE   CLOUDY    76  68  76 SE5       29.90F
MCCOOK         MOCLDY    74  69  85 N10       29.89S

...EASTERN NEBRASKA...

CITY           SKY/WX    TMP DP  RH WIND       PRES   REMARKS
NORFOLK        MOCLDY    77  73  87 CALM      29.84R
SO SIOUX CITY  PTCLDY    77  72  84 E5        29.82R
COLUMBUS       MOCLDY    64 N/A N/A NE5       29.82R
ALBION         CLOUDY    76  74  92 CALM      29.86R FOG
OMAHA EPPLEY   MOCLDY    79  72  79 NE3       29.79R
OFFUTT AFB     PTCLDY    76  76 100 NE6       29.78R
MILLARD        CLEAR     81  76  85 CALM      29.79R
LINCOLN        CLEAR     78  73  84 N5        29.80R
NEBRASKA CITY  CLEAR     80  75  85 NW3       29.79R
BEATRICE       CLEAR     76  73  90 CALM      29.80S
FALLS CITY     CLEAR     85  71  63 SW7       29.77R HX  90

...NORTHERN KANSAS...

CITY           SKY/WX    TMP DP  RH WIND       PRES   REMARKS
GOODLAND       TSTM      75  67  76 W12       29.99F
HILL CITY      MOCLDY    79  69  71 E5        29.85S
NORTON         CLEAR     73  64  73 NE5       29.84F
PHILLIPSBURG   CLEAR     81  70  69 CALM      29.83S
SMITH CENTER   CLEAR     79  70  73 NE7       29.82S
HAYS           PTCLDY    81  68  65 CALM      29.84S
RUSSELL        PTCLDY    79  69  71 SW6       29.81S
CONCORDIA      PTCLDY    81  75  82 E3        29.79F
SALINA         PTCLDY    89  59  36 S16       29.79S
TOPEKA         CLEAR     87  73  62 S10G23    29.80R HX  94



USA.gov is the U.S. government's official web portal to all federal, state and local government web resources and services.